Pensacola, FL

4:30 AM CDT on August 31, 2016 (GMT -0500)
Pensacola Naval Air Station

Weather History for KNPA - November, 2011

Change the Weather History Date:

Thursday, November 17, 2011

  Actual Average Record
Temperature  
Mean Temperature 58 °F -  
Max Temperature 68 °F 68 °F 80 °F (2013)
Min Temperature 46 °F 50 °F 31 °F (1997)
Degree Days  
Heating Degree Days 7    
Growing Degree Days 8 (Base 50)    
Moisture  
Dew Point 45 °F    
Average Humidity 63    
Maximum Humidity 94    
Minimum Humidity 30    
Precipitation  
Precipitation 0.00 in - - ()
Sea Level Pressure  
Sea Level Pressure 30.14 in    
Wind  
Wind Speed 11 mph (North)    
Max Wind Speed 16 mph    
Max Gust Speed 32 mph    
Visibility 10 miles    
Events      
Averages and records for this station are not official NWS values.
T = Trace of Precipitation, MM = Missing Value Source: NWS Daily Summary

Daily Weather History Graph

Daily Weather History Graph

Search for Another Location

Airport or City:

Trip Planner

Search our weather history database for the weather conditions in past years. The results will help you decide how hot, cold, wet, or windy it might be!

Date:

Astronomy

Nov. 17, 2011 Rise Set
Actual Time 6:16 AM CST 4:51 PM CST
Civil Twilight 5:50 AM CST 5:17 PM CST
Nautical Twilight 5:21 AM CST 5:46 PM CST
Astronomical Twilight 4:53 AM CST 6:14 PM CST
Moon 11:02 PM CST (11/17) 11:32 AM CST (11/17)
Length of Visible Light 11h 26m
Length of Day
10h 35m
Waning Gibbous, 59% of the Moon is Illuminated
Nov 17
Waning Gibbous
Nov 18
Last Quarter
Nov 25
New
Dec 2
First Quarter
Dec 10
Full

Hourly Weather History & Observations

Time (CST) Temp. Dew Point Humidity Pressure Visibility Wind Dir Wind Speed Gust Speed Precip Events Conditions
12:56 AM 68.0 °F 66.0 °F 93% 29.95 in 10.0 mi West 3.5 mph - N/A   Clear
1:25 AM 66.2 °F 64.4 °F 94% 29.96 in 10.0 mi NW 12.7 mph 19.6 mph N/A   Mostly Cloudy
1:56 AM 64.9 °F 63.0 °F 93% 29.97 in 10.0 mi NNW 12.7 mph 19.6 mph N/A   Mostly Cloudy
2:47 AM 62.6 °F 60.8 °F 94% 29.99 in 10.0 mi NNW 13.8 mph 20.7 mph N/A   Overcast
2:56 AM 63.0 °F 61.0 °F 93% 29.99 in 10.0 mi NNW 13.8 mph 21.9 mph N/A   Overcast
3:56 AM 62.1 °F 57.0 °F 84% 30.02 in 10.0 mi NNW 15.0 mph 25.3 mph N/A   Overcast
4:21 AM 60.8 °F 55.4 °F 82% 30.03 in 10.0 mi NNW 11.5 mph 25.3 mph N/A   Scattered Clouds
4:56 AM 59.0 °F 55.0 °F 87% 30.05 in 10.0 mi NNW 12.7 mph 21.9 mph N/A   Clear
5:25 AM 59.0 °F 53.6 °F 82% 30.07 in 10.0 mi North 12.7 mph 32.2 mph N/A   Mostly Cloudy
5:56 AM 57.9 °F 53.1 °F 84% 30.09 in 10.0 mi North 15.0 mph 21.9 mph N/A   Mostly Cloudy
6:56 AM 57.0 °F 51.1 °F 81% 30.13 in 10.0 mi NNW 15.0 mph 24.2 mph N/A   Mostly Cloudy
7:07 AM 57.2 °F 51.8 °F 82% 30.13 in 10.0 mi NNW 12.7 mph 19.6 mph N/A   Scattered Clouds
7:56 AM 57.0 °F 48.9 °F 74% 30.17 in 10.0 mi NNW 15.0 mph 24.2 mph N/A   Scattered Clouds
8:56 AM 57.0 °F 46.9 °F 69% 30.20 in 10.0 mi NNW 16.1 mph 23.0 mph N/A   Partly Cloudy
9:56 AM 61.0 °F 46.0 °F 58% 30.20 in 10.0 mi North 12.7 mph 21.9 mph N/A   Partly Cloudy
10:56 AM 64.0 °F 46.0 °F 52% 30.19 in 10.0 mi North 13.8 mph - N/A   Clear
11:56 AM 66.0 °F 43.0 °F 43% 30.18 in 10.0 mi North 15.0 mph 24.2 mph N/A   Clear
12:56 PM 66.0 °F 41.0 °F 40% 30.17 in 10.0 mi North 13.8 mph 21.9 mph N/A   Clear
1:56 PM 66.0 °F 37.9 °F 36% 30.16 in 10.0 mi North 13.8 mph 20.7 mph N/A   Clear
2:56 PM 66.0 °F 36.0 °F 33% 30.17 in 10.0 mi North 9.2 mph - N/A   Clear
3:56 PM 63.0 °F 30.9 °F 30% 30.18 in 10.0 mi North 13.8 mph 23.0 mph N/A   Clear
4:56 PM 59.0 °F 30.0 °F 33% 30.21 in 10.0 mi North 8.1 mph 17.3 mph N/A   Clear
5:56 PM 55.9 °F 28.9 °F 36% 30.25 in 10.0 mi North 8.1 mph - N/A   Clear
6:56 PM 53.1 °F 30.0 °F 41% 30.27 in 10.0 mi North 8.1 mph 17.3 mph N/A   Clear
7:56 PM 52.0 °F 30.9 °F 45% 30.29 in 10.0 mi North 9.2 mph - N/A   Clear
8:56 PM 51.1 °F 30.9 °F 46% 30.29 in 10.0 mi North 10.4 mph - N/A   Clear
9:56 PM 50.0 °F 30.0 °F 46% 30.29 in 10.0 mi North 13.8 mph 20.7 mph N/A   Clear
10:56 PM 48.0 °F 28.9 °F 48% 30.28 in 10.0 mi NNE 13.8 mph - N/A   Clear
11:56 PM 46.9 °F 28.0 °F 48% 30.27 in 10.0 mi NNE 11.5 mph - N/A   Clear